Location: Unspecified
(0.0000°N, 0.0000°E)
Time: 12:50:51
(UTC+02:00)

Altair - All Passes

Search period start: 31 August 2015 00:00
Search period end: 10 September 2015 00:00
Orbit: 1502 x 1682 km, 47.2° (Epoch: 31 August)

Date Brightness Start Highest point End Pass type
(mag) Time Alt. Az. Time Alt. Az. Time Alt. Az.
31 Aug - 01:44:24 10° NW 01:53:33 79° NE 02:02:58 10° SE night (unlit)
31 Aug - 03:51:56 10° W 03:58:35 20° SW 04:04:54 10° S night (unlit)
31 Aug - 12:30:07 10° SSW 12:38:59 35° SE 12:47:56 10° ENE daylight
31 Aug - 14:34:06 10° SW 14:43:54 52° NW 14:53:20 10° NNE daylight
31 Aug - 23:20:54 10° NNE 23:23:02 11° NE 23:26:01 10° ENE visible
01 Sep - 01:19:20 10° NNW 01:28:25 70° NE 01:37:45 10° SE night (unlit)
01 Sep - 03:26:14 10° W 03:33:20 23° SW 03:40:12 10° S night (unlit)
01 Sep - 12:05:15 10° S 12:13:44 32° SE 12:22:25 10° ENE daylight
01 Sep - 14:08:45 10° SW 14:18:42 59° NW 14:28:21 10° NNE daylight
02 Sep - 00:54:19 10° NNW 01:03:19 63° NE 01:12:31 10° SE night (unlit)
02 Sep - 03:00:37 10° W 03:08:06 26° SW 03:15:26 10° S night (unlit)
02 Sep - 11:40:24 10° S 11:48:29 28° SE 11:56:50 10° ENE daylight
02 Sep - 13:43:27 10° SW 13:53:31 66° NW 14:03:19 10° NNE daylight
02 Sep - 15:56:07 10° WNW 15:59:14 11° NW 16:01:24 10° NNW daylight
03 Sep - 00:29:19 10° NNW 00:38:11 56° NE 00:47:14 10° SE visible
03 Sep - 02:35:04 10° WNW 02:42:53 30° SW 02:50:38 10° S night (unlit)
03 Sep - 11:15:37 10° S 11:23:12 25° SE 11:31:10 10° E daylight
03 Sep - 13:18:11 10° SW 13:28:20 73° NW 13:38:15 10° NNE daylight
03 Sep - 15:29:11 10° WNW 15:33:54 13° NW 15:37:45 10° NNW daylight
04 Sep - 00:04:21 10° NNW 00:13:02 49° NE 00:21:56 10° ESE visible
04 Sep - 02:09:35 10° WNW 02:17:41 34° SW 02:25:46 10° SSE night (unlit)
04 Sep - 10:50:54 10° S 10:57:55 22° SE 11:05:25 10° E daylight
04 Sep - 12:52:57 10° SW 13:03:09 81° NW 13:13:09 10° NE daylight
04 Sep - 15:02:48 10° W 15:08:34 16° NW 15:13:33 10° NNW daylight
04 Sep - 23:39:24 10° NNW 23:47:54 44° NE 23:56:35 10° ESE visible
05 Sep - 01:44:10 10° WNW 01:52:31 38° SW 02:00:52 10° SSE night (unlit)
05 Sep - 10:26:16 10° S 10:32:37 19° SE 10:39:33 10° E daylight
05 Sep - 12:27:45 10° SW 12:37:58 89° NW 12:48:01 10° NE daylight
05 Sep - 14:36:41 10° W 14:43:16 18° NW 14:49:08 10° N daylight
05 Sep - 23:14:30 10° NNW 23:22:45 39° NE 23:31:11 10° ESE visible
06 Sep - 01:18:47 10° WNW 01:27:21 43° SW 01:35:57 10° SSE night (unlit)
06 Sep - 10:01:44 10° S 10:07:17 17° SE 10:13:33 10° E daylight
06 Sep - 12:02:35 10° SW 12:12:47 83° SE 12:22:52 10° NE daylight
06 Sep - 14:10:44 10° W 14:17:58 21° NW 14:24:34 10° N daylight
06 Sep - 22:49:38 10° NNW 22:57:35 34° NE 23:05:45 10° ESE visible
07 Sep - 00:53:27 10° WNW 01:02:12 48° SW 01:11:00 10° SSE night (unlit)
07 Sep - 09:37:23 10° SSE 09:41:57 14° SE 09:47:20 10° ESE daylight
07 Sep - 11:37:27 10° SW 11:47:36 76° SE 11:57:40 10° NE daylight
07 Sep - 13:44:54 10° W 13:52:42 24° NW 13:59:55 10° N daylight
07 Sep - 22:24:48 10° N 22:32:24 30° NE 22:40:15 10° ESE visible
08 Sep - 00:28:10 10° NW 00:37:03 54° SW 00:46:01 10° SSE visible
08 Sep - 09:13:19 10° SSE 09:16:36 12° SE 09:20:48 10° ESE daylight
08 Sep - 11:12:21 10° SSW 11:22:24 68° SE 11:32:26 10° NE daylight
08 Sep - 13:19:11 10° WSW 13:27:26 27° NW 13:35:11 10° N daylight
08 Sep - 22:00:01 10° N 22:07:12 27° NE 22:14:42 10° ESE visible
09 Sep - 00:02:54 10° NW 00:11:54 61° SW 00:21:00 10° SSE visible
09 Sep - 08:50:13 10° SE 08:51:14 10° SE 08:53:16 10° SE daylight
09 Sep - 10:47:16 10° SSW 10:57:14 61° SE 11:07:10 10° NE daylight
09 Sep - 12:53:32 10° WSW 13:02:11 30° NW 13:10:24 10° N daylight
09 Sep - 21:35:17 10° N 21:42:00 24° NE 21:49:04 10° E visible
09 Sep - 23:37:41 10° NW 23:46:47 68° SW 23:55:57 10° SSE visible
